Change the Weather History Date:

Saturday, January 19, 2013

  Actual Average (KLBX) Record (KLBX)
Temperature  
Mean Temperature 54 °F -  
Max Temperature 71 °F 61 °F 77 °F (2000)
Min Temperature 38 °F 45 °F 28 °F (2003)
Degree Days  
Heating Degree Days 10    
Growing Degree Days 4 (Base 50)    
Moisture  
Dew Point 46 °F    
Average Humidity 80    
Maximum Humidity 100    
Minimum Humidity 38    
Precipitation  
Precipitation 0.00 in - - ()
Sea Level Pressure  
Sea Level Pressure 30.27 in    
Wind  
Wind Speed 5 mph (ESE)    
Max Wind Speed 10 mph    
Max Gust Speed 16 mph    
Visibility 9 miles    
Events Fog    
Averages and records for this station are not official NWS values.
T = Trace of Precipitation, MM = Missing Value Source: NWS Daily Summary

Daily Weather History Graph

Daily Weather History Graph

Search for Another Location

Airport or City:

Trip Planner

Search our weather history database for the weather conditions in past years. The results will help you decide how hot, cold, wet, or windy it might be!

Date:

Astronomy

Jan. 19, 2013 Rise Set
Actual Time 7:17 AM CST 5:51 PM CST
Civil Twilight 6:51 AM CST 6:17 PM CST
Nautical Twilight 6:22 AM CST 6:45 PM CST
Astronomical Twilight 5:54 AM CST 7:14 PM CST
Moon 12:13 PM CST (1/19) 12:59 AM CST (1/19)
Length of Visible Light 11h 25m
Length of Day
10h 34m
First Quarter, 57% of the Moon is Illuminated
Jan 19
First Quarter
Jan 26
Full
Feb 3
Last Quarter
Feb 10
New
Feb 17
First Quarter

Hourly Weather History & Observations

Time (CST) Temp. Windchill Dew Point Humidity Pressure Visibility Wind Dir Wind Speed Gust Speed Precip Events Conditions
12:15 AM 38.5 °F 35.0 °F 38.5 °F 100% 30.37 in 10.0 mi NE 4.6 mph - N/A   Clear
12:35 AM 38.1 °F 34.6 °F 38.1 °F 100% 30.36 in 10.0 mi NE 4.6 mph - N/A   Clear
12:55 AM 38.7 °F 35.2 °F 38.7 °F 100% 30.36 in 10.0 mi NE 4.6 mph - N/A   Clear
1:15 AM 38.8 °F 36.5 °F 38.8 °F 100% 30.36 in 10.0 mi NE 3.5 mph - N/A   Clear
1:35 AM 38.8 °F 36.5 °F 38.8 °F 100% 30.36 in 10.0 mi ENE 3.5 mph - N/A   Clear
1:55 AM 38.5 °F 35.0 °F 38.5 °F 100% 30.35 in 10.0 mi ENE 4.6 mph - N/A   Clear
2:15 AM 38.5 °F 36.1 °F 38.5 °F 100% 30.34 in 10.0 mi NE 3.5 mph - N/A   Clear
2:35 AM 39.6 °F 36.3 °F 39.6 °F 100% 30.33 in 10.0 mi ENE 4.6 mph - N/A   Clear
2:55 AM 38.8 °F 35.4 °F 38.8 °F 100% 30.33 in 10.0 mi NE 4.6 mph - N/A   Clear
3:15 AM 39.2 °F 35.0 °F 39.2 °F 100% 30.32 in 10.0 mi NE 5.8 mph - N/A   Clear
3:35 AM 40.5 °F - 40.5 °F 100% 30.32 in 10.0 mi Calm Calm - N/A   Clear
3:55 AM 40.6 °F 38.6 °F 40.6 °F 100% 30.31 in 10.0 mi NE 3.5 mph - N/A   Clear
4:15 AM 38.7 °F 35.2 °F 38.7 °F 100% 30.31 in 10.0 mi NE 4.6 mph - N/A   Clear
4:35 AM 38.7 °F 35.2 °F 38.7 °F 100% 30.30 in 10.0 mi NE 4.6 mph - N/A   Clear
4:55 AM 40.1 °F 38.0 °F 40.1 °F 100% 30.31 in 10.0 mi ENE 3.5 mph - N/A   Clear
5:15 AM 39.9 °F 35.8 °F 39.9 °F 100% 30.30 in 10.0 mi ENE 5.8 mph - N/A   Clear
5:35 AM 40.3 °F 36.3 °F 40.3 °F 100% 30.29 in 10.0 mi East 5.8 mph - N/A   Clear
5:55 AM 40.5 °F 37.3 °F 40.5 °F 100% 30.29 in 10.0 mi ENE 4.6 mph - N/A   Clear
7:15 AM 42.1 °F - 42.1 °F 100% 30.30 in 7.0 mi Calm Calm - N/A   Clear
7:55 AM 43.5 °F 40.1 °F 43.5 °F 100% 30.31 in 7.0 mi ENE 5.8 mph - N/A   Clear
8:15 AM 45.7 °F 43.4 °F 45.7 °F 100% 30.31 in 10.0 mi East 4.6 mph - N/A   Clear
8:35 AM 47.7 °F - 47.7 °F 100% 30.32 in 10.0 mi East 3.5 mph - N/A   Clear
8:55 AM 49.6 °F - 49.6 °F 100% 30.32 in 10.0 mi Calm Calm - N/A   Clear
9:35 AM 54.3 °F - 51.8 °F 91% 30.33 in 10.0 mi ESE 6.9 mph - N/A   Clear
9:55 AM 57.6 °F - 51.4 °F 80% 30.33 in 10.0 mi ESE 8.1 mph - N/A   Clear
10:15 AM 60.8 °F - 51.8 °F 72% 30.33 in 10.0 mi ESE 6.9 mph - N/A   Clear
10:35 AM 64.4 °F - 50.9 °F 62% 30.33 in 10.0 mi SE 9.2 mph - N/A   Clear
11:15 AM 67.1 °F - 47.1 °F 49% 30.30 in 10.0 mi SE 9.2 mph - N/A   Clear
11:35 AM 69.8 °F - 46.4 °F 43% 30.29 in 10.0 mi SSE 9.2 mph 16.1 mph N/A   Clear
11:55 AM 69.8 °F - 44.6 °F 40% 30.28 in 10.0 mi SSE 6.9 mph - N/A   Clear
12:15 PM 69.8 °F - 44.8 °F 41% 30.28 in 10.0 mi SSW 6.9 mph - N/A   Clear
12:35 PM 70.3 °F - 45.0 °F 40% 30.27 in 10.0 mi South 9.2 mph - N/A   Clear
12:55 PM 70.2 °F - 46.2 °F 42% 30.25 in 10.0 mi South 8.1 mph - N/A   Clear
1:15 PM 70.5 °F - 46.4 °F 42% 30.24 in 10.0 mi SSW 5.8 mph - N/A   Clear
1:35 PM 69.8 °F - 44.6 °F 40% 30.23 in 10.0 mi SSW 8.1 mph - N/A   Clear
1:55 PM 71.1 °F - 44.2 °F 38% 30.23 in 10.0 mi SSW 9.2 mph - N/A   Clear
2:15 PM 71.6 °F - 46.4 °F 41% 30.21 in 10.0 mi South 5.8 mph - N/A   Scattered Clouds
2:35 PM 70.9 °F - 46.6 °F 42% 30.21 in 10.0 mi SSW 5.8 mph - N/A   Scattered Clouds
2:55 PM 70.0 °F - 46.8 °F 43% 30.21 in 10.0 mi South 6.9 mph - N/A   Scattered Clouds
3:15 PM 68.9 °F - 47.7 °F 47% 30.21 in 10.0 mi South 10.4 mph - N/A   Mostly Cloudy
3:35 PM 68.0 °F - 48.0 °F 49% 30.21 in 10.0 mi South 6.9 mph - N/A   Mostly Cloudy
3:55 PM 68.4 °F - 48.2 °F 48% 30.20 in 10.0 mi South 5.8 mph - N/A   Mostly Cloudy
4:15 PM 68.2 °F - 48.4 °F 49% 30.21 in 10.0 mi South 5.8 mph - N/A   Mostly Cloudy
4:35 PM 66.4 °F - 48.9 °F 53% 30.21 in 10.0 mi South 8.1 mph - N/A   Mostly Cloudy
4:55 PM 66.2 °F - 49.8 °F 55% 30.21 in 10.0 mi South 9.2 mph - N/A   Overcast
5:15 PM 66.2 °F - 50.2 °F 56% 30.20 in 10.0 mi South 9.2 mph - N/A   Scattered Clouds
5:35 PM 64.9 °F - 50.7 °F 60% 30.20 in 10.0 mi SSE 4.6 mph - N/A   Scattered Clouds
5:55 PM 61.9 °F - 50.5 °F 66% 30.20 in 10.0 mi SSE 5.8 mph - N/A   Scattered Clouds
6:15 PM 59.0 °F - 50.4 °F 73% 30.20 in 10.0 mi SSE 5.8 mph - N/A   Clear
6:35 PM 57.2 °F - 50.5 °F 78% 30.21 in 10.0 mi SSE 5.8 mph - N/A   Clear
6:55 PM 56.1 °F - 51.1 °F 83% 30.21 in 10.0 mi SE 4.6 mph - N/A   Clear
7:15 PM 55.4 °F - 51.3 °F 86% 30.21 in 10.0 mi SE 8.1 mph - N/A   Clear
7:35 PM 55.0 °F - 51.8 °F 89% 30.23 in 10.0 mi ESE 5.8 mph - N/A   Clear
7:55 PM 53.6 °F - 51.8 °F 94% 30.23 in 10.0 mi ESE 4.6 mph - N/A   Clear
8:15 PM 54.7 °F - 53.2 °F 95% 30.24 in 10.0 mi ESE 4.6 mph - N/A   Clear
8:35 PM 54.0 °F - 54.0 °F 100% 30.24 in 10.0 mi ESE 4.6 mph - N/A   Clear
8:55 PM 53.8 °F - 53.8 °F 100% 30.24 in 10.0 mi ESE 3.5 mph - N/A   Clear
9:15 PM 53.4 °F - 53.4 °F 100% 30.24 in 10.0 mi ESE 4.6 mph - N/A   Clear
9:35 PM 52.9 °F - 52.9 °F 100% 30.24 in 10.0 mi ESE 3.5 mph - N/A   Clear
9:55 PM 50.7 °F - 50.7 °F 100% 30.24 in 0.8 mi Calm Calm - N/A   Mist
10:15 PM 50.9 °F - 50.9 °F 100% 30.24 in 4.0 mi Calm Calm - N/A   Clear
10:35 PM 49.1 °F - 49.1 °F 100% 30.24 in 1.0 mi ENE 3.5 mph - N/A   Mist
10:55 PM 46.9 °F - 46.9 °F 100% 30.25 in 0.2 mi Calm Calm - N/A Fog Fog
11:15 PM 47.5 °F - 47.5 °F 100% 30.25 in 0.2 mi Calm Calm - N/A Fog Fog
11:35 PM 46.8 °F - 46.8 °F 100% 30.25 in 0.8 mi Calm Calm - N/A   Mist
11:55 PM 45.5 °F - 45.5 °F 100% 30.25 in 0.2 mi Calm Calm - N/A Fog Fog